sat.trackr.live / text

‹ back to catalog

STARLINK-36982

NORAD 68278 · 2026-055S

PAYLOAD ACTIVE UNKNOWN

§ Identity

Operator
Country
US
Launch date
2026-03-19
Launch site
AFETR
Launch vehicle
Mass (kg)
RCS (m²)

Purposes: comms

External: N2YO · Heavens-Above · Gunter

§ Orbital elements

Epoch: 2026-09-19T22:18:10.179072Z

Period
93.85 min
Inclination
53.1569°
Eccentricity
0.0001335
Mean motion
15.34398656 rev/d
Perigee alt
461.8 km
Apogee alt
463.6 km
Semi-major
6,840.8 km
B*
7.2140e-4
RAAN
132.5261°
Arg perigee
92.8109°
Mean anomaly
267.3047°
Rev number
2,973

§ Raw data

STARLINK-369821 68278U 26055S   26262.92928448  .00024075  00000+0  72140-3 0  99972 68278  53.1569 132.5261 0001335  92.8109 267.3047 15.34398656 29733

JSON: /api/v1/satellites/68278 · /tle

For live sub-satellite position, see the globe view (requires WebGL).

§ Visibility from observer

Set your observer location to see the next 7 days of passes ≥ 10°. The values pass through the URL so the page stays shareable.

No JS? Fill the form by hand. The geolocation button needs JavaScript.